PBO Station Position Time Series. Reference Frame : NAM14
Format Version,1.1.0
4-character ID,P331
Station name,EagleRock_CN2007
Begin Date, 2007-06-21
End Date, 2019-10-07
Release Date, 2019-10-08
Reference position, 40.7329144962 North Latitude, -123.3241435679 East Longitude, 1541.98628 meters elevation,
Date, North (mm), East (mm), Vertical (mm), North Std. Deviation (mm), East Std. Deviation (mm),              Vertical Std. Deviation (mm), Quality,
2007-06-21,0.00, 0.00, 0.00, 2.05, 1.57, 7.11, repro,
2007-06-22,-1.15, 0.20, 2.13, 2.05, 1.55, 7.03, repro,
2007-06-23,0.03, -1.59, -0.41, 2.03, 1.54, 6.97, repro,
2007-06-24,-0.65, -1.86, -2.69, 2.05, 1.59, 7.20, repro,
2007-06-25,1.39, -1.73, -1.09, 2.02, 1.54, 6.99, repro,
2007-06-26,-0.13, -0.58, -6.59, 2.03, 1.55, 7.02, repro,
2007-06-27,-0.19, -1.07, -1.20, 2.06, 1.56, 7.10, repro,
2007-06-28,-0.23, -0.67, -1.77, 2.04, 1.55, 7.06, repro,
2007-06-29,1.46, 1.91, -0.66, 2.03, 1.55, 7.04, repro,
2007-06-30,-1.21, -1.07, -0.53, 2.03, 1.55, 7.03, repro,
2007-07-01,0.10, -1.39, 1.51, 2.03, 1.56, 7.04, repro,
2007-07-02,-0.13, -0.85, 5.04, 2.08, 1.62, 7.23, repro,
2007-07-03,-0.26, -0.52, -0.83, 2.05, 1.56, 7.11, repro,
2007-07-04,-0.51, -0.03, 0.51, 2.04, 1.54, 7.02, repro,
2007-07-05,-1.39, -2.16, 1.88, 2.10, 1.56, 7.23, repro,
2007-07-06,-0.36, -0.84, 1.07, 2.10, 1.66, 7.43, repro,
2007-07-07,-0.62, 0.83, -3.06, 2.13, 1.63, 7.40, repro,
2007-07-08,0.02, -0.76, 1.16, 2.04, 1.55, 7.03, repro,
2007-07-09,-1.06, 2.46, 3.71, 2.06, 1.57, 7.18, repro,
2007-07-10,-0.02, 0.87, 1.05, 2.05, 1.55, 7.04, repro,
2007-07-11,-1.52, -0.53, -1.96, 2.02, 1.55, 6.99, repro,
2007-07-12,-1.96, -2.52, -1.70, 2.04, 1.56, 7.04, repro,
2007-07-13,-1.72, -0.66, 2.22, 2.08, 1.63, 7.28, repro,
2007-07-14,-0.60, -1.02, 4.47, 2.03, 1.54, 6.98, repro,
2007-07-15,-1.68, 0.13, 6.11, 2.08, 1.60, 7.22, repro,
2007-07-16,-2.54, -1.30, 3.14, 2.06, 1.61, 7.22, repro,
2007-07-17,-1.78, -1.55, 11.37, 2.03, 1.55, 7.01, repro,
2007-07-18,-0.68, -1.46, 4.40, 2.03, 1.56, 7.06, repro,
2007-07-19,-1.73, -0.16, 3.29, 2.04, 1.57, 7.10, repro,
2007-07-20,0.08, -0.85, 1.96, 2.08, 1.60, 7.21, repro,
2007-07-21,-0.23, 1.21, 12.21, 2.08, 1.61, 7.23, repro,
2007-07-22,0.07, -0.52, 0.07, 2.11, 1.63, 7.41, repro,
2007-07-23,0.73, -0.90, 0.52, 2.08, 1.61, 7.29, repro,
2007-07-24,1.10, -2.18, 8.00, 2.08, 1.61, 7.27, repro,
2007-07-25,-0.20, -1.73, 3.15, 2.09, 1.62, 7.31, repro,
2007-07-26,0.39, 0.06, 6.75, 2.05, 1.55, 7.07, repro,
2007-07-27,-1.21, -1.41, 8.89, 2.06, 1.60, 7.17, repro,
2007-07-28,-0.39, -2.56, 10.00, 2.04, 1.56, 7.06, repro,
2007-07-29,-0.07, -2.55, 10.69, 2.06, 1.61, 7.21, repro,
2007-07-30,0.22, -3.16, 6.36, 2.09, 1.62, 7.27, repro,
2007-07-31,-0.92, 0.09, 10.44, 2.14, 1.67, 7.46, repro,
2007-08-01,-1.70, -2.53, 15.82, 2.03, 1.55, 6.99, repro,
2007-08-02,-1.14, -3.24, 19.11, 2.04, 1.55, 6.99, repro,
2007-08-03,-0.39, -3.04, 7.80, 2.03, 1.56, 7.05, repro,
2007-08-04,-0.60, -2.76, 14.08, 2.05, 1.55, 7.03, repro,
2007-08-05,-0.45, -2.25, 12.87, 2.12, 1.62, 7.31, repro,
2007-08-06,0.55, -3.46, 16.89, 2.07, 1.60, 7.23, repro,
2007-08-07,-1.97, -2.43, 12.37, 2.05, 1.59, 7.14, repro,
2007-08-08,-1.48, -3.08, 10.44, 2.03, 1.56, 7.03, repro,
2007-08-09,-0.13, -2.91, 13.42, 2.04, 1.56, 7.06, repro,
2007-08-10,-1.76, -3.18, 18.12, 2.04, 1.56, 7.04, repro,
2007-08-11,-1.24, -3.40, 11.04, 2.02, 1.53, 6.95, repro,
2007-08-12,-1.04, -3.49, 11.88, 2.03, 1.54, 6.98, repro,
2007-08-13,-2.66, -3.07, 8.89, 2.02, 1.54, 6.96, repro,
2007-08-14,-1.37, -2.73, 12.96, 2.14, 1.67, 7.34, repro,
2007-08-15,-1.86, -2.91, 12.68, 2.15, 1.67, 7.37, repro,
2007-08-16,-0.56, -3.54, 10.07, 2.11, 1.61, 7.27, repro,
2007-08-17,-0.71, -4.15, 4.34, 2.11, 1.61, 7.29, repro,
2007-08-18,-1.59, -2.93, 12.00, 2.15, 1.64, 7.46, repro,
2007-08-19,-2.17, -3.36, 14.89, 2.15, 1.66, 7.51, repro,
2007-08-20,-2.27, -3.55, 11.64, 2.16, 1.65, 7.51, repro,
2007-08-21,-0.20, -4.02, 11.26, 2.13, 1.61, 7.32, repro,
2007-08-22,0.22, -4.13, 10.78, 2.12, 1.58, 7.20, repro,
2007-08-23,0.70, -2.37, 17.60, 2.08, 1.57, 7.14, repro,
2007-08-24,-0.67, -3.93, 16.04, 2.18, 1.65, 7.46, repro,
2007-08-25,-1.23, -2.34, 11.95, 2.13, 1.63, 7.35, repro,
2007-08-26,-1.33, -3.84, 19.37, 2.18, 1.68, 7.57, repro,
2007-08-27,-0.99, -4.23, 16.08, 2.17, 1.67, 7.54, repro,
2007-08-28,-0.36, -3.89, 9.47, 2.13, 1.62, 7.32, repro,
2007-08-29,1.23, -5.07, 11.53, 2.11, 1.64, 7.36, repro,
2007-08-30,-0.65, -6.03, 9.37, 2.37, 1.85, 8.01, repro,
2007-08-31,-1.34, -5.07, 9.34, 2.18, 1.69, 7.53, repro,
2007-09-01,-1.26, -2.29, 15.64, 2.14, 1.63, 7.38, repro,
2007-09-02,-0.84, -3.85, 9.94, 2.13, 1.62, 7.32, repro,
2007-09-03,-0.82, -3.09, 10.35, 2.12, 1.62, 7.30, repro,
2007-09-04,-2.39, -1.91, 9.46, 2.12, 1.63, 7.40, repro,
2007-09-05,-2.28, -4.97, 14.08, 2.11, 1.62, 7.29, repro,
2007-09-06,-1.07, -4.38, 17.81, 2.14, 1.63, 7.39, repro,
2007-09-07,-1.76, -4.29, 16.65, 2.13, 1.62, 7.31, repro,
2007-09-08,0.08, -1.55, 6.38, 2.22, 1.71, 7.75, repro,
2007-09-09,-0.71, -2.95, 6.76, 2.19, 1.70, 7.67, repro,
2007-09-10,-0.18, -4.13, 8.91, 2.13, 1.63, 7.39, repro,
2007-09-11,-0.93, -4.10, 12.82, 2.14, 1.64, 7.40, repro,
2007-09-12,-0.82, -3.88, 8.53, 2.19, 1.68, 7.49, repro,
2007-09-13,-2.00, -4.11, 10.99, 2.27, 1.69, 7.76, repro,
2007-09-14,-2.51, -3.93, 9.17, 2.17, 1.67, 7.57, repro,
2007-09-15,-0.71, -3.64, 13.30, 2.21, 1.65, 7.65, repro,
2007-09-16,-1.25, -5.99, 14.97, 2.14, 1.65, 7.44, repro,
2007-09-17,-0.65, -4.85, 22.18, 2.23, 1.73, 7.78, repro,
2007-09-18,-0.78, -4.18, 13.26, 2.09, 1.63, 7.27, repro,
2007-09-19,-1.73, -4.60, 9.16, 2.05, 1.56, 7.03, repro,
2007-09-20,-1.66, -3.63, 8.06, 2.07, 1.58, 7.20, repro,
2007-09-21,-0.65, -3.42, 11.82, 2.17, 1.64, 7.50, repro,
2007-09-22,-1.60, -3.54, 20.47, 2.10, 1.59, 7.28, repro,
2007-09-23,-0.48, -2.84, 18.40, 2.14, 1.61, 7.29, repro,
2007-09-24,-1.67, -1.06, 17.83, 2.18, 1.64, 7.46, repro,
2007-09-25,-3.00, -1.72, 7.14, 2.12, 1.58, 7.29, repro,
2007-09-26,-1.03, -2.55, 12.93, 2.21, 1.63, 7.47, repro,
2007-09-27,-0.45, -3.84, 15.80, 2.13, 1.60, 7.39, repro,
2007-09-28,-1.51, -3.73, 13.33, 2.16, 1.71, 7.58, repro,
2007-09-29,-3.27, -2.31, 13.02, 2.13, 1.65, 7.36, repro,
2007-09-30,-2.68, -2.23, 13.40, 2.14, 1.65, 7.34, repro,
2007-10-01,-0.83, -3.20, 15.12, 2.13, 1.65, 7.35, repro,
2007-10-02,-1.01, -3.59, 15.32, 2.18, 1.71, 7.66, repro,
2007-10-03,-2.04, -1.79, 15.05, 2.12, 1.63, 7.43, repro,
2007-10-04,-1.76, -0.41, 15.26, 2.13, 1.64, 7.46, repro,
2007-10-05,-2.68, -2.05, 16.55, 2.15, 1.70, 7.58, repro,
2007-10-06,-1.86, -2.73, 14.22, 2.18, 1.67, 7.51, repro,
2007-10-07,-1.67, -2.54, 9.23, 2.26, 1.71, 7.74, repro,
2007-10-08,-1.36, -3.38, 12.08, 2.37, 1.75, 8.08, repro,
2007-10-09,-3.26, -3.23, 12.51, 2.34, 1.89, 8.42, repro,
2007-10-10,-1.42, -2.59, 2.79, 2.29, 1.69, 7.78, repro,
2007-10-11,-2.43, -2.10, 10.66, 2.11, 1.65, 7.33, repro,
2007-10-12,-1.17, -4.00, 15.22, 2.22, 1.74, 7.89, repro,
2007-10-13,-1.82, -3.53, 15.08, 2.06, 1.60, 7.22, repro,
2007-10-14,-0.87, -2.94, 15.01, 2.07, 1.60, 7.24, repro,
2007-10-15,0.54, -1.58, 21.89, 2.07, 1.60, 7.29, repro,
2007-10-16,-1.93, -2.29, 17.27, 2.08, 1.60, 7.27, repro,
2007-10-17,-1.67, -0.36, 14.54, 2.10, 1.63, 7.36, repro,
2007-10-18,-1.51, -2.58, 16.02, 2.12, 1.65, 7.38, repro,
2007-10-19,-0.69, -2.84, 16.32, 2.07, 1.60, 7.24, repro,
2007-10-20,-1.36, -2.60, 11.56, 2.11, 1.63, 7.44, repro,
2007-10-21,-1.66, -1.51, 11.50, 2.06, 1.59, 7.24, repro,
2007-10-22,-1.21, -1.72, 2.53, 2.11, 1.63, 7.42, repro,
2007-10-23,-0.97, -2.34, 5.74, 2.16, 1.69, 7.55, repro,
2007-10-24,-1.27, -1.88, 10.19, 2.17, 1.70, 7.60, repro,
2007-10-25,-1.21, -1.76, 10.14, 2.08, 1.61, 7.32, repro,
2007-10-26,-1.09, -2.96, 5.54, 2.10, 1.65, 7.39, repro,
2007-10-27,-1.52, -2.54, 4.75, 2.08, 1.60, 7.27, repro,
2007-10-28,-0.52, -1.76, 4.80, 2.07, 1.60, 7.27, repro,
2007-10-29,-0.72, -2.25, 12.33, 2.06, 1.60, 7.23, repro,
2007-10-30,-0.99, -1.30, 10.22, 2.06, 1.61, 7.27, repro,
2007-10-31,-1.17, -2.84, 5.99, 2.07, 1.60, 7.23, repro,
2007-11-01,0.05, -1.45, 6.48, 2.02, 1.56, 7.05, repro,
2007-11-02,0.03, -2.17, 8.21, 2.03, 1.56, 7.03, repro,
2007-11-03,-0.30, -2.45, 4.85, 2.04, 1.57, 7.07, repro,
2007-11-04,-0.15, -2.27, 7.43, 2.02, 1.56, 7.02, repro,
2007-11-05,-0.74, -2.03, 8.37, 2.03, 1.57, 7.04, repro,
2007-11-06,-0.45, -2.06, 3.90, 2.10, 1.65, 7.40, repro,
2007-11-07,-0.46, -2.32, 4.85, 2.03, 1.56, 7.03, repro,
2007-11-08,-0.45, -2.51, 6.29, 2.06, 1.59, 7.11, repro,
2007-11-09,-1.24, -2.86, 5.74, 2.07, 1.60, 7.17, repro,
2007-11-10,0.15, -2.57, 8.82, 2.04, 1.57, 7.16, repro,
2007-11-11,-1.20, -2.16, 5.68, 2.04, 1.56, 7.06, repro,
2007-11-12,-0.31, -2.25, 7.57, 2.01, 1.55, 7.00, repro,
2007-11-13,-0.11, -1.87, 5.66, 2.03, 1.55, 7.02, repro,
2007-11-14,0.13, -3.19, 2.31, 2.05, 1.57, 7.12, repro,
2007-11-15,-0.50, -3.79, 4.30, 2.07, 1.58, 7.21, repro,
2007-11-16,-0.67, -2.73, 11.14, 2.07, 1.58, 7.20, repro,
2007-11-17,0.65, -2.65, 3.54, 2.03, 1.55, 7.02, repro,
2007-11-18,-1.08, -3.75, 7.39, 2.05, 1.57, 7.15, repro,
2007-11-19,0.37, -2.64, 0.95, 2.02, 1.56, 7.06, repro,
2007-11-20,0.30, -4.01, -0.74, 2.05, 1.61, 7.21, repro,
2007-11-21,0.10, -2.43, 3.40, 2.12, 1.69, 7.63, repro,
2007-11-22,0.90, -2.80, -2.09, 2.03, 1.57, 7.05, repro,
2007-11-23,1.53, -2.95, -0.50, 2.07, 1.66, 7.32, repro,
2007-11-24,1.67, -3.60, 1.84, 2.13, 1.66, 7.40, repro,
2007-11-25,0.69, -3.05, 2.60, 2.08, 1.67, 7.33, repro,
2007-11-26,0.51, -3.73, 2.54, 2.14, 1.70, 7.51, repro,
2007-11-27,1.26, -2.62, 1.67, 2.17, 1.70, 7.58, repro,
2007-11-28,0.41, -3.87, -4.80, 2.11, 1.66, 7.32, repro,
2007-11-29,0.10, -3.22, -0.95, 2.14, 1.71, 7.58, repro,
2007-11-30,0.32, -3.34, -1.31, 2.15, 1.69, 7.45, repro,
2007-12-01,0.14, -4.23, 6.48, 2.19, 1.77, 7.78, repro,
2007-12-02,2.04, -2.41, 4.63, 2.21, 1.84, 8.09, repro,
2007-12-03,0.56, -1.65, 4.58, 2.27, 1.83, 8.11, repro,
2007-12-04,0.20, -0.84, 4.17, 2.17, 1.78, 7.89, repro,
2007-12-05,1.38, -2.15, -4.38, 2.21, 1.82, 8.16, repro,
2007-12-06,1.07, 0.30, -0.26, 2.38, 2.01, 8.65, repro,
2007-12-07,-0.38, 0.04, 5.02, 2.21, 1.82, 7.90, repro,
2007-12-08,-2.87, 0.49, 5.69, 2.14, 1.70, 7.56, repro,
2007-12-09,-0.28, -3.10, 2.01, 2.46, 2.32, 9.51, repro,
2007-12-10,0.28, -1.72, 0.22, 2.19, 1.76, 7.67, repro,
2007-12-11,0.56, -2.50, -0.73, 2.19, 1.76, 7.67, repro,
2007-12-12,0.89, -2.60, -3.03, 2.18, 1.68, 7.74, repro,
2007-12-13,0.89, -1.87, -6.06, 2.12, 1.64, 7.47, repro,
2007-12-14,0.60, -1.68, 3.29, 2.10, 1.60, 7.33, repro,
2007-12-15,1.06, -1.79, 6.69, 2.09, 1.60, 7.31, repro,
2007-12-16,1.03, -3.27, 0.15, 2.08, 1.59, 7.25, repro,
2007-12-17,-0.26, -4.00, 8.87, 2.14, 1.63, 7.35, repro,
2007-12-18,1.08, -3.08, 10.24, 2.11, 1.64, 7.45, repro,
2007-12-19,-0.60, -2.75, 10.04, 2.18, 1.66, 7.60, repro,
2007-12-20,1.15, -1.80, 10.86, 2.10, 1.64, 7.40, repro,
2007-12-21,0.54, -1.44, 3.21, 2.17, 1.73, 7.82, repro,
2007-12-22,-1.43, 1.48, -4.06, 3.06, 2.25, 10.17, repro,
2007-12-24,2.10, -1.24, 2.00, 3.92, 3.50, 14.87, repro,
2007-12-25,1.22, -1.90, 4.25, 2.13, 1.68, 7.50, repro,
2007-12-26,0.61, -1.14, 2.75, 2.10, 1.62, 7.32, repro,
2007-12-27,-0.53, -1.58, 7.89, 3.21, 2.30, 10.87, repro,
2007-12-31,1.66, 3.74, -0.26, 5.38, 5.32, 20.96, repro,
2008-01-01,0.23, -1.55, -1.58, 2.09, 1.57, 7.23, repro,
2008-01-02,0.94, -1.70, 2.62, 2.08, 1.57, 7.18, repro,
2008-01-03,-0.43, -1.37, 10.05, 2.13, 1.59, 7.41, repro,
2008-01-04,3.67, -0.96, 10.93, 2.12, 1.59, 7.35, repro,
2008-01-05,2.95, -0.19, 26.52, 3.17, 2.17, 10.43, repro,
2008-02-28,0.17, -0.90, -5.21, 5.13, 5.09, 19.71, repro,
2008-02-29,-1.90, 0.35, 7.97, 3.22, 2.82, 11.17, repro,
2008-03-01,1.42, -1.63, -1.16, 2.88, 2.24, 9.81, repro,
2008-03-02,-1.59, -0.10, -1.74, 4.90, 3.07, 15.72, repro,
2008-03-03,-1.47, 1.83, -2.75, 3.85, 3.71, 14.52, repro,
2008-03-04,0.90, -0.83, -1.89, 2.42, 1.85, 8.69, repro,
2008-03-05,1.78, -0.08, -8.22, 2.19, 1.74, 7.90, repro,
2008-03-06,0.49, 0.39, -7.69, 2.24, 1.70, 7.88, repro,
2008-03-07,0.61, 0.69, -6.99, 2.12, 1.62, 7.43, repro,
2008-03-08,-0.43, 3.09, -5.22, 2.14, 1.67, 7.62, repro,
2008-03-09,0.87, 1.44, -9.59, 2.25, 1.75, 7.94, repro,
2008-03-10,0.65, 0.27, -10.71, 2.11, 1.62, 7.41, repro,
2008-03-11,0.42, 2.04, -2.65, 2.17, 1.65, 7.47, repro,
2008-03-12,-0.86, 1.38, 3.64, 2.12, 1.62, 7.41, repro,
2008-03-13,-0.24, 1.31, 5.41, 2.13, 1.64, 7.46, repro,
2008-03-14,1.03, -1.26, -2.80, 2.10, 1.63, 7.33, repro,
2008-03-15,0.33, 1.85, -4.88, 2.17, 1.65, 7.56, repro,
2008-03-16,0.65, 1.04, 0.12, 2.20, 1.67, 7.63, repro,
2008-03-17,-2.03, 2.02, -6.27, 2.19, 1.74, 7.78, repro,
2008-03-18,-2.26, 2.51, 0.81, 2.27, 1.74, 7.82, repro,
2008-03-19,0.32, 0.72, 0.66, 2.28, 1.77, 8.03, repro,
2008-03-20,0.76, 0.35, -2.63, 2.33, 1.79, 8.16, repro,
2008-03-21,1.41, 1.86, -8.83, 2.22, 1.70, 7.67, repro,
2008-03-22,1.32, -0.21, -12.34, 2.26, 1.72, 7.77, repro,
2008-03-23,2.29, 0.43, -15.75, 2.49, 1.76, 8.37, repro,
2008-03-24,-0.04, 0.56, -3.02, 2.27, 1.77, 8.08, repro,
2008-03-25,0.79, 1.26, -4.31, 2.20, 1.68, 7.63, repro,
2008-03-26,1.63, 1.61, -4.60, 2.17, 1.71, 7.69, repro,
2008-03-27,0.74, -0.44, -9.05, 2.20, 1.75, 7.75, repro,
2008-03-28,-0.07, -0.36, -4.85, 2.10, 1.61, 7.31, repro,
2008-03-29,1.49, 0.84, 1.62, 2.12, 1.62, 7.39, repro,
2008-03-30,0.21, 1.11, -2.23, 2.20, 1.66, 7.78, repro,
2008-03-31,2.07, 1.17, -6.06, 2.17, 1.65, 7.52, repro,
2008-04-01,0.79, 0.72, -3.42, 2.10, 1.62, 7.33, repro,
2008-04-02,0.58, 0.77, 2.59, 2.11, 1.57, 7.28, repro,
2008-04-03,-1.21, 1.55, 2.08, 2.16, 1.63, 7.47, repro,
2008-04-04,-0.09, 2.49, -3.50, 2.12, 1.61, 7.40, repro,
2008-04-05,0.52, 0.34, 2.25, 2.16, 1.66, 7.81, repro,
2008-04-06,0.64, 2.15, 0.22, 2.10, 1.60, 7.34, repro,
2008-04-07,0.27, 2.35, -6.69, 2.19, 1.69, 7.62, repro,
2008-04-08,-0.43, -0.06, -0.13, 2.19, 1.69, 7.80, repro,
2008-04-09,0.22, 0.58, 3.35, 2.21, 1.70, 7.75, repro,
2008-04-10,1.32, 1.11, -3.42, 2.20, 1.67, 7.67, repro,
2008-04-11,0.93, -0.19, -0.63, 2.19, 1.70, 7.77, repro,
2008-04-12,1.53, -0.24, -5.65, 2.09, 1.58, 7.32, repro,
2008-04-13,2.17, -0.24, -4.72, 2.04, 1.55, 7.14, repro,
2008-04-14,2.24, -1.99, -0.60, 2.06, 1.56, 7.25, repro,
2008-04-15,1.72, -0.42, 2.98, 2.11, 1.62, 7.34, repro,
2008-04-16,1.96, -1.80, -1.48, 2.16, 1.65, 7.53, repro,
2008-04-17,1.96, -2.17, 0.29, 2.07, 1.55, 7.21, repro,
2008-04-18,0.57, -2.11, -5.56, 2.05, 1.55, 7.16, repro,
2008-04-19,0.05, -2.86, -1.63, 2.09, 1.58, 7.36, repro,
2008-04-20,-1.50, -2.54, -1.28, 2.08, 1.56, 7.28, repro,
2008-04-21,-1.07, -2.86, 3.24, 2.08, 1.56, 7.22, repro,
2008-04-22,-0.21, -3.00, 3.14, 2.09, 1.55, 7.20, repro,
2008-04-23,-1.24, -2.32, 2.80, 2.15, 1.64, 7.57, repro,
2008-04-24,-1.60, -2.59, 4.94, 2.08, 1.58, 7.32, repro,
2008-04-25,-1.86, -2.10, 1.98, 2.11, 1.62, 7.47, repro,
2008-04-26,-1.00, -3.75, -2.79, 2.17, 1.65, 7.53, repro,
2008-04-27,-1.23, -3.69, -5.05, 2.22, 1.66, 7.63, repro,
2008-04-28,-1.46, -4.36, -1.98, 2.18, 1.59, 7.46, repro,
2008-04-29,-0.84, -4.89, 4.76, 2.22, 1.65, 7.68, repro,
2008-04-30,-2.75, -3.04, 0.51, 2.15, 1.63, 7.52, repro,
2008-05-01,-1.40, -2.53, 2.15, 2.11, 1.61, 7.38, repro,
2008-05-02,-3.38, -2.33, 2.63, 2.18, 1.65, 7.57, repro,
2008-05-03,-1.64, -3.69, 0.11, 2.14, 1.59, 7.41, repro,
2008-05-04,-2.02, -2.35, 4.01, 2.09, 1.56, 7.32, repro,
2008-05-05,-2.40, -3.10, 0.49, 2.11, 1.60, 7.38, repro,
2008-05-06,-2.28, -4.29, 1.39, 2.15, 1.66, 7.61, repro,
2008-05-07,-0.52, -4.17, -0.25, 2.10, 1.59, 7.35, repro,
2008-05-08,-0.77, -4.39, 7.01, 2.27, 1.69, 7.91, repro,
2008-05-09,-1.86, -2.96, 6.64, 2.17, 1.65, 7.67, repro,
2008-05-10,-3.01, -0.74, 4.60, 2.08, 1.56, 7.32, repro,
2008-05-11,-2.24, -3.90, 6.31, 2.15, 1.63, 7.54, repro,
2008-05-12,-3.88, -3.46, 9.77, 2.13, 1.61, 7.46, repro,
2008-05-13,-1.72, -3.52, 6.85, 2.12, 1.57, 7.29, repro,
2008-05-14,-1.46, -2.81, 1.60, 2.10, 1.55, 7.23, repro,
2008-05-15,-3.28, -3.66, -2.21, 2.10, 1.55, 7.32, repro,
2008-05-16,-3.36, -2.84, -6.13, 2.08, 1.55, 7.20, repro,
2008-05-17,-1.59, -3.23, 1.26, 2.10, 1.56, 7.28, repro,
2008-05-18,-2.74, -3.61, 5.38, 2.13, 1.60, 7.42, repro,
2008-05-19,-1.99, -2.82, 0.82, 2.14, 1.59, 7.39, repro,
2008-05-20,-3.46, -2.32, 8.16, 2.09, 1.56, 7.34, repro,
2008-05-21,-3.37, -2.28, 2.70, 2.07, 1.55, 7.24, repro,
2008-05-22,-3.75, -2.32, 13.29, 2.11, 1.61, 7.44, repro,
2008-05-23,-2.27, -2.75, 10.99, 2.08, 1.59, 7.37, repro,
2008-05-24,-2.05, -4.61, 6.79, 2.07, 1.54, 7.15, repro,
2008-05-25,-2.72, -3.25, 5.56, 2.07, 1.54, 7.16, repro,
2008-05-26,-2.58, -2.36, 6.76, 2.08, 1.58, 7.31, repro,
2008-05-27,-1.95, -2.17, 7.55, 2.06, 1.54, 7.14, repro,
2008-05-28,-1.44, -2.92, 0.62, 2.07, 1.55, 7.22, repro,
2008-05-29,-0.98, -3.10, 3.17, 2.29, 1.76, 8.04, repro,
2008-05-30,-1.92, -2.73, 0.37, 2.06, 1.54, 7.16, repro,
2008-05-31,-0.79, -1.99, 1.68, 2.11, 1.61, 7.44, repro,
2008-06-01,-1.59, -1.80, -0.75, 2.10, 1.56, 7.23, repro,
2008-06-02,-1.30, -2.01, 3.33, 2.08, 1.54, 7.24, repro,
2008-06-03,-1.21, -1.73, 4.85, 2.14, 1.61, 7.47, repro,
2008-06-04,-3.72, -2.34, 9.30, 2.07, 1.56, 7.27, repro,
2008-06-05,1.40, -4.30, 7.91, 2.06, 1.54, 7.13, repro,
2008-06-06,-2.19, -1.70, 4.58, 2.11, 1.57, 7.26, repro,
2008-06-07,-1.31, -2.68, 6.47, 2.15, 1.62, 7.48, repro,
2008-06-08,0.53, -1.72, 4.15, 2.16, 1.60, 7.46, repro,
2008-06-09,-0.50, -3.35, 3.16, 2.12, 1.59, 7.34, repro,
2008-06-10,0.15, -1.35, 5.61, 2.07, 1.54, 7.16, repro,
2008-06-11,-1.29, -1.60, 2.64, 2.07, 1.54, 7.16, repro,
2008-06-12,-1.34, -1.40, 5.25, 2.10, 1.56, 7.32, repro,
2008-06-13,-0.88, -1.80, -0.84, 2.09, 1.54, 7.21, repro,
2008-06-14,-1.00, -1.61, 5.62, 2.15, 1.60, 7.40, repro,
2008-06-15,-1.46, -2.52, 9.34, 2.14, 1.60, 7.43, repro,
2008-06-16,0.02, -2.50, 0.78, 2.07, 1.54, 7.16, repro,
2008-06-17,-0.92, -1.83, 4.49, 2.08, 1.55, 7.22, repro,
2008-06-18,-1.61, -1.38, 2.06, 2.08, 1.54, 7.18, repro,
2008-06-19,-0.39, -2.60, 2.86, 2.10, 1.60, 7.38, repro,
2008-06-20,-1.86, -2.18, 3.98, 2.09, 1.57, 7.30, repro,
2008-06-21,-0.73, -2.13, -0.41, 2.09, 1.56, 7.30, repro,
2008-06-22,-1.04, -2.30, 2.18, 2.11, 1.59, 7.32, repro,
2008-06-23,-2.45, -0.97, 4.25, 2.08, 1.54, 7.16, repro,
2008-06-24,-0.45, -1.46, 1.09, 2.09, 1.55, 7.24, repro,
2008-06-25,-0.58, -1.55, 5.13, 2.07, 1.55, 7.15, repro,
2008-06-26,0.76, -2.34, 5.83, 2.09, 1.60, 7.36, repro,
2008-06-27,-1.51, -1.81, 10.63, 2.11, 1.60, 7.38, repro,
2008-06-28,-0.65, -1.78, 3.85, 2.12, 1.61, 7.45, repro,
2008-06-29,-0.50, -1.87, 9.64, 2.14, 1.61, 7.45, repro,
2008-06-30,-1.16, -1.81, 4.62, 2.08, 1.55, 7.18, repro,
2008-07-01,-0.92, -2.56, 10.48, 2.07, 1.55, 7.20, repro,
2008-07-02,-1.74, -1.73, 3.77, 2.07, 1.54, 7.17, repro,
2008-07-03,-1.91, -2.67, 3.82, 2.08, 1.55, 7.23, repro,
2008-07-04,-2.65, -2.21, 10.56, 2.11, 1.55, 7.30, repro,
2008-07-05,-0.42, -1.47, 5.87, 2.10, 1.57, 7.28, repro,
2008-07-06,0.89, -1.40, 10.71, 2.07, 1.55, 7.20, repro,
2008-07-07,-0.96, -3.11, 5.88, 2.11, 1.60, 7.38, repro,
2008-07-08,0.11, -2.15, 8.10, 2.08, 1.54, 7.19, repro,
2008-07-09,-1.96, -1.25, 10.17, 2.14, 1.60, 7.42, repro,
2008-07-10,0.64, -2.97, 6.07, 2.16, 1.59, 7.40, repro,
2008-07-11,-0.75, -1.85, 7.18, 2.15, 1.60, 7.37, repro,
2008-07-12,-1.72, -2.70, 11.92, 2.09, 1.55, 7.24, repro,
2008-07-13,-0.99, -2.62, 13.80, 2.14, 1.62, 7.46, repro,
2008-07-14,-1.94, -1.87, 13.12, 2.24, 1.71, 8.07, repro,
2008-07-15,-2.06, -3.00, 19.14, 2.12, 1.57, 7.36, repro,
2008-07-16,-0.75, -1.03, 4.98, 2.08, 1.55, 7.20, repro,
2008-07-17,-0.83, -1.29, 3.45, 2.07, 1.55, 7.21, repro,
2008-07-18,-0.98, -1.85, 12.61, 2.18, 1.60, 7.51, repro,
2008-07-19,-0.82, -3.35, 6.86, 2.15, 1.55, 7.38, repro,
2008-07-20,-1.22, -1.20, 12.51, 2.11, 1.55, 7.25, repro,
2008-07-21,-2.59, -2.39, 17.60, 2.10, 1.56, 7.26, repro,
2008-07-22,-1.60, -3.10, 10.54, 2.07, 1.55, 7.22, repro,
2008-07-23,-1.56, -1.86, 8.71, 2.11, 1.56, 7.30, repro,
2008-07-24,-1.75, -2.58, 8.33, 2.08, 1.55, 7.19, repro,
2008-07-25,-1.66, -0.57, 9.26, 2.09, 1.53, 7.16, repro,
2008-07-26,-1.32, -0.99, 8.74, 2.08, 1.54, 7.13, repro,
2008-07-27,-0.52, -5.15, 20.08, 2.09, 1.55, 7.23, repro,
2008-07-28,0.79, -2.75, 12.41, 2.12, 1.58, 7.23, repro,
2008-07-29,-1.46, -1.20, 20.90, 2.13, 1.56, 7.41, repro,
2008-07-30,-2.16, -1.09, 20.83, 2.16, 1.56, 7.44, repro,
2008-07-31,-0.68, -2.85, 18.14, 2.09, 1.53, 7.15, repro,
2008-08-01,-2.17, -1.48, 16.54, 2.08, 1.54, 7.13, repro,
2008-08-02,-1.58, -3.31, 18.79, 2.06, 1.53, 7.10, repro,
2008-08-03,-1.69, -2.52, 11.52, 2.10, 1.58, 7.27, repro,
2008-08-04,-1.41, -2.10, 12.00, 2.07, 1.55, 7.18, repro,
2008-08-05,-2.12, -0.78, 13.07, 2.09, 1.54, 7.16, repro,
2008-08-06,-1.94, -2.26, 19.82, 2.19, 1.62, 7.55, repro,
2008-08-07,-2.32, -1.08, 13.87, 2.29, 1.71, 7.84, repro,
2008-08-08,-0.51, -1.11, 15.26, 2.17, 1.59, 7.36, repro,
2008-08-09,-1.39, -2.45, 13.14, 2.11, 1.53, 7.16, repro,
2008-08-10,-0.75, -3.14, 7.27, 2.12, 1.55, 7.21, repro,
2008-08-11,-1.28, -1.96, 9.18, 2.14, 1.55, 7.30, repro,
2008-08-12,-1.67, -2.73, 12.95, 2.17, 1.60, 7.49, repro,
2008-08-13,-0.42, -3.36, 11.16, 2.15, 1.56, 7.37, repro,
2008-08-14,-2.29, -2.04, 10.43, 2.11, 1.54, 7.21, repro,
2008-08-15,-2.67, -2.16, 14.12, 2.12, 1.55, 7.23, repro,
2008-08-16,-2.50, -2.79, 14.07, 2.12, 1.55, 7.25, repro,
2008-08-17,-1.45, -3.60, 22.21, 2.14, 1.55, 7.33, repro,
2008-08-18,0.78, -1.58, 15.93, 2.19, 1.60, 7.54, repro,
2008-08-19,-1.13, -2.08, 20.33, 2.14, 1.56, 7.31, repro,
2008-08-20,-1.42, -2.55, 16.22, 2.12, 1.54, 7.23, repro,
2008-08-21,0.47, -2.78, 19.03, 2.12, 1.54, 7.18, repro,
2008-08-22,-0.62, -3.70, 17.27, 2.12, 1.54, 7.24, repro,
2008-08-23,-2.39, -3.07, 17.02, 2.12, 1.54, 7.22, repro,
2008-08-24,-1.03, -2.84, 15.95, 2.15, 1.59, 7.42, repro,
2008-08-25,-0.81, -0.88, 13.43, 2.18, 1.59, 7.56, repro,
2008-08-26,-0.31, -2.90, 15.47, 2.14, 1.55, 7.25, repro,
2008-08-27,-1.25, -2.56, 13.24, 2.14, 1.58, 7.36, repro,
2008-08-28,-2.43, -4.06, 13.60, 2.27, 1.66, 7.69, repro,
2008-08-29,-1.16, -3.04, 13.13, 2.16, 1.58, 7.37, repro,
2008-08-30,-1.62, -1.89, 16.14, 2.14, 1.58, 7.35, repro,
2008-08-31,-3.02, -2.11, 15.18, 2.15, 1.57, 7.34, repro,
2008-09-01,-1.77, -3.07, 6.31, 2.16, 1.57, 7.34, repro,
2008-09-02,-2.00, -2.52, 8.42, 2.15, 1.57, 7.38, repro,
2008-09-03,-0.20, -2.06, 10.01, 2.16, 1.58, 7.36, repro,
2008-09-04,-1.21, -1.85, 12.96, 2.25, 1.68, 7.80, repro,
2008-09-05,-0.89, -1.89, 7.73, 2.24, 1.63, 7.59, repro,
2008-09-06,-1.29, -1.77, 10.03, 2.13, 1.57, 7.29, repro,
2008-09-07,-2.72, -0.42, 13.94, 2.16, 1.57, 7.39, repro,
2008-09-08,-1.16, -1.36, 15.97, 2.15, 1.58, 7.39, repro,
2008-09-09,-0.95, -1.07, 16.11, 2.18, 1.57, 7.41, repro,
2008-09-10,-1.25, -0.12, 12.76, 2.18, 1.60, 7.45, repro,
2008-09-11,-1.35, -2.31, 13.16, 2.18, 1.59, 7.42, repro,
2008-09-12,-0.79, -2.85, 13.39, 2.24, 1.65, 7.67, repro,
2008-09-13,-1.70, -0.87, 13.37, 2.23, 1.64, 7.67, repro,
2008-09-14,-1.27, -1.93, 12.97, 2.21, 1.64, 7.63, repro,
2008-09-15,-1.31, -0.23, 11.42, 2.13, 1.57, 7.34, repro,
2008-09-16,-1.95, -2.03, 7.51, 2.14, 1.60, 7.37, repro,
2008-09-17,-2.12, -2.24, 11.03, 2.23, 1.61, 7.54, repro,
2008-09-18,-1.59, -3.02, 12.51, 2.17, 1.57, 7.38, repro,
2008-09-19,-1.46, -3.65, 10.44, 2.12, 1.55, 7.24, repro,
2008-09-20,-0.15, -1.78, 11.09, 2.10, 1.54, 7.19, repro,
2008-09-21,-1.59, -0.78, 10.71, 2.13, 1.55, 7.25, repro,
2008-09-22,-1.30, -2.42, 9.83, 2.16, 1.58, 7.46, repro,
2008-09-23,-0.69, -2.43, 12.57, 2.13, 1.55, 7.27, repro,
2008-09-24,-1.82, -2.51, 11.52, 2.22, 1.65, 7.70, repro,
2008-09-25,0.58, -1.53, 8.26, 2.12, 1.54, 7.24, repro,
2008-09-26,-0.24, -0.97, 12.33, 2.12, 1.55, 7.22, repro,
2008-09-27,-1.31, -1.51, 11.44, 2.17, 1.58, 7.37, repro,
2008-09-28,-0.48, -1.51, 11.55, 2.13, 1.54, 7.22, repro,
2008-09-29,-0.29, -1.96, 10.14, 2.18, 1.58, 7.38, repro,
2008-09-30,0.62, -1.79, 6.51, 2.13, 1.54, 7.22, repro,
2008-10-01,-0.27, -1.28, 10.31, 2.12, 1.55, 7.23, repro,
2008-10-02,-0.08, -1.88, 17.69, 2.17, 1.59, 7.44, repro,
2008-10-03,-0.68, -1.48, 8.70, 2.18, 1.59, 7.43, repro,
2008-10-04,-3.19, -1.54, 10.36, 2.14, 1.54, 7.26, repro,
2008-10-05,0.42, -2.11, 6.99, 2.12, 1.53, 7.16, repro,
2008-10-06,-1.26, -2.03, 12.79, 2.12, 1.53, 7.15, repro,
2008-10-07,-1.62, -1.17, 5.21, 2.16, 1.56, 7.32, repro,